Content
SEND FEEDBACK

Daily
Averages
Monthly
Summary
United States of America

AUBURN, INDIANA


Home > North America > United States > Indiana
Elevation: 268 meters     Latitude: 41 20N     Longitude: 085 03W

WEATHER
 
SELECT A DAY
Number of Records: 157,296;   Date Range: 2/27/08 - 9/29/14
 
SHARE

PRINT THIS DATA

[ ← Previous Day ]
WEATHER ALMANAC - 23 JANUARY, 2013
[ Next Day → ]
[ °F ]   °C
Weather ElementAverageHighLow
Temperature-9.4 °C-7 °C (2:15 pm)-13 °C (1:15 am)
Dewpoint-15.5 °C-10 °C (7:55 pm)-20 °C (12:35 am)
Humidity62.9 %86 % (7:55 pm)42 % (11:35 am)
Barometer1022 hPa1025.4 hPa (12:35 am)1017.9 hPa (8:15 pm)
Wind Speed11.7 km/h24.1 km/h (11:35 pm)
Wind Gust35.2 km/h (11:55 pm)
Weather ElementAverage
Visibility13.2 km
Wind DirectionWSW (234.1 °)

Weather ElementTotal
Precipitation---
Heating Degree Days28.3 (Base 18.3)
Averaged from 69 records on 23 January, 2013
WEATHER CONDITIONS BREAKOUT
WIND DIRECTION BREAKOUT
WEATHER BY HOUR - 23 JANUARY, 2013
[ °F ]   °C
Local TimeTemperatureDewpointHumidityBarometerVisibilityWind DirectionWind SpeedGust SpeedPrecipitationEventsConditions
12:35 AM-12 °C-20 °C52 %1025.4 hPa16.1 kmWSW (240°)9.3 km/hClear
12:55 AM-12 °C-20 °C52 %1025.4 hPa16.1 kmWSW (240°)7.4 km/hClear
1:15 AM-13 °C-19 °C62 %1025.4 hPa16.1 kmWSW (240°)9.3 km/hClear
1:35 AM-13 °C-19 °C62 %1025.4 hPa16.1 kmWSW (240°)9.3 km/hClear
2:15 AM-13 °C-19 °C62 %1025.4 hPa16.1 kmSW (230°)11.1 km/hClear
2:35 AM-13 °C-19 °C62 %1025.4 hPa16.1 kmWSW (240°)11.1 km/hClear
2:55 AM-13 °C-19 °C62 %1025.4 hPa16.1 kmWSW (240°)11.1 km/hClear
3:15 AM-13 °C-18 °C67 %1025.1 hPa16.1 kmWSW (240°)7.4 km/hClear
3:35 AM-13 °C-18 °C67 %1025.1 hPa16.1 kmSW (230°)9.3 km/hClear
3:55 AM-13 °C-18 °C67 %1025.4 hPa16.1 kmWSW (240°)9.3 km/hClear
4:15 AM-13 °C-18 °C67 %1025.1 hPa16.1 kmSW (230°)11.1 km/hClear
4:35 AM-13 °C-18 °C67 %1025.1 hPa16.1 kmSW (220°)9.3 km/hClear
4:55 AM-13 °C-18 °C67 %1025.1 hPa16.1 kmSW (230°)11.1 km/hClear
5:15 AM-13 °C-18 °C67 %1024.7 hPa16.1 kmSW (230°)9.3 km/hMostly Cloudy
5:35 AM-12 °C-18 °C62 %1024.7 hPa16.1 kmSW (230°)11.1 km/hOvercast
5:55 AM-12 °C-18 °C62 %1024.7 hPa16.1 kmWSW (240°)11.1 km/hOvercast
6:15 AM-12 °C-17 °C67 %1024.7 hPa16.1 kmWSW (240°)11.1 km/hOvercast
6:35 AM-12 °C-17 °C67 %1024.7 hPa16.1 kmSW (230°)11.1 km/hOvercast
6:55 AM-12 °C-17 °C67 %1024.7 hPa16.1 kmWSW (240°)11.1 km/hOvercast
7:15 AM-11 °C-17 °C62 %1024.7 hPa16.1 kmWSW (240°)13 km/hOvercast
7:55 AM-11 °C-17 °C62 %1024.7 hPa16.1 kmSW (230°)11.1 km/hOvercast
8:15 AM-11 °C-17 °C62 %1024.7 hPa16.1 kmWSW (240°)11.1 km/hOvercast
8:35 AM-11 °C-17 °C62 %1024.4 hPa16.1 kmWSW (250°)11.1 km/hOvercast
8:55 AM-11 °C-17 °C62 %1024.4 hPa16.1 kmSW (230°)11.1 km/hOvercast
9:15 AM-11 °C-17 °C62 %1024 hPa16.1 kmSW (220°)11.1 km/hOvercast
9:35 AM-10 °C-17 °C57 %1024 hPa16.1 kmWSW (240°)9.3 km/hOvercast
9:55 AM-10 °C-18 °C53 %1024.4 hPa16.1 kmWSW (250°)13 km/hOvercast
10:15 AM-10 °C-18 °C53 %1024.4 hPa16.1 kmSW (230°)11.1 km/hOvercast
10:35 AM-9 °C-18 °C49 %1024 hPa16.1 kmSSW (210°)13 km/hOvercast
10:55 AM-8 °C-18 °C45 %1024 hPa16.1 kmWSW (250°)18.5 km/h25.9 km/hOvercast
11:15 AM-9 °C-19 °C45 %1024 hPa16.1 kmSW (230°)13 km/hOvercast
11:35 AM-8 °C-19 °C42 %1023.7 hPa16.1 kmSW (230°)14.8 km/hOvercast
11:55 AM-8 °C-18 °C45 %1023.7 hPa16.1 kmWest (260°)14.8 km/hOvercast
12:15 PM-8 °C-18 °C45 %1023.4 hPa16.1 kmWSW (240°)14.8 km/hMostly Cloudy
12:35 PM-8 °C-18 °C45 %1022.7 hPa16.1 kmSW (230°)14.8 km/hMostly Cloudy
12:55 PM-8 °C-18 °C45 %1022.7 hPa16.1 kmWSW (250°)9.3 km/h14.8 km/hMostly Cloudy
1:15 PM-8 °C-18 °C45 %1022 hPa16.1 kmSW (220°)11.1 km/hOvercast
1:35 PM-8 °C-18 °C45 %1021.7 hPa16.1 kmWSW (240°)14.8 km/h25.9 km/hOvercast
1:55 PM-8 °C-17 °C49 %1021.3 hPa16.1 kmSW (230°)13 km/hOvercast
2:15 PM-7 °C-16 °C49 %1021 hPa16.1 kmWSW (250°)13 km/hOvercast
2:35 PM-8 °C-16 °C53 %1020.7 hPa16.1 kmWSW (240°)11.1 km/hOvercast
2:55 PM-7 °C-16 °C49 %1020.3 hPa16.1 kmWSW (240°)16.7 km/hMostly Cloudy
3:15 PM-7 °C-16 °C49 %1020.3 hPa16.1 kmWSW (240°)13 km/hMostly Cloudy
3:35 PM-7 °C-16 °C49 %1020 hPa16.1 kmSW (220°)14.8 km/hMostly Cloudy
3:55 PM-7 °C-16 °C49 %1020 hPa16.1 kmSW (220°)13 km/hMostly Cloudy
4:15 PM-7 °C-16 °C49 %1019.6 hPa16.1 kmSW (220°)13 km/hMostly Cloudy
4:35 PM-7 °C-15 °C54 %1019.6 hPa16.1 kmWSW (240°)16.7 km/hMostly Cloudy
4:55 PM-7 °C-15 °C54 %1019.6 hPa16.1 kmWSW (240°)11.1 km/hOvercast
5:15 PM-7 °C-13 °C63 %1019.6 hPa11.3 kmWest (260°)14.8 km/hOvercast
5:35 PM-8 °C-13 °C68 %1019.3 hPa8 kmSW (220°)7.4 km/hSnowLight Snow
5:55 PM-8 °C-12 °C73 %1019 hPa6.4 kmSW (230°)11.1 km/hSnowLight Snow
6:15 PM-8 °C-11 °C79 %1019 hPa4.8 kmCalmSnowLight Snow
6:35 PM-8 °C-11 °C79 %1019 hPa4 kmSW (220°)5.6 km/hSnowLight Snow
6:55 PM-8 °C-11 °C79 %1018.6 hPa4 kmSW (220°)7.4 km/hSnowLight Snow
7:15 PM-8 °C-11 °C79 %1018.6 hPa3.2 kmSSW (210°)7.4 km/hSnowLight Snow
7:35 PM-8 °C-11 °C79 %1018.3 hPa4 kmSSW (210°)7.4 km/hSnowLight Snow
7:55 PM-8 °C-10 °C86 %1018.3 hPa8 kmSSW (210°)9.3 km/hSnowLight Snow
8:15 PM-8 °C-10 °C86 %1017.9 hPa6.4 kmSW (220°)7.4 km/hSnowLight Snow
8:35 PM-8 °C-10 °C86 %1018.3 hPa6.4 kmSW (230°)9.3 km/hSnowLight Snow
8:55 PM-7 °C-11 °C74 %1018.3 hPa11.3 kmWSW (240°)11.1 km/hSnowLight Snow
9:15 PM-7 °C-11 °C74 %1017.9 hPa6.4 kmWSW (240°)5.6 km/hSnowLight Snow
9:35 PM-7 °C-11 °C74 %1018.3 hPa8 kmSW (230°)9.3 km/hSnowLight Snow
9:55 PM-7 °C-10 °C80 %1017.9 hPa11.3 kmWSW (250°)13 km/hSnowLight Snow
10:15 PM-7 °C-10 °C80 %1017.9 hPa8 kmWSW (240°)11.1 km/hSnowLight Snow
10:35 PM-7 °C-10 °C80 %1017.9 hPa4 kmWest (260°)16.7 km/hSnowLight Snow
10:55 PM-7 °C-10 °C80 %1018.3 hPa3.2 kmWest (270°)16.7 km/h25.9 km/hSnowLight Snow
11:15 PM-7 °C-10 °C80 %1018.3 hPa4.8 kmWest (280°)22.2 km/hSnowLight Snow
11:35 PM-7 °C-10 °C80 %1018.6 hPa4.8 kmWNW (290°)24.1 km/h33.3 km/hSnowLight Snow
11:55 PM-7 °C-10 °C80 %1019 hPa4.8 kmNW (320°)24.1 km/h35.2 km/hSnowLight Snow
Hourly data recorded from KGWB, located 0 kilometers away from Auburn, Indiana







STORIES FROM OUR PARTNERS